Location: Bergnershof
(48.9468°N, 10.9431°E)
Time: 11:50:11
(UTC+00:00)

Cosmos 1500 - Pass Details

Date: 03 March 2021
Orbit: 499 x 517 km, 82.5° (Epoch: 12 April)

Event Time Altitude Azimuth Distance (km) Brightness Sun altitude
Rises 18:47:37 0° 200° (SSW) 2,581 6.9 -17.9°
Reaches altitude 10° 18:49:45 10° 206° (SSW) 1,702 6.0 -18.3°
Maximum altitude 18:53:23 51° 283° (WNW) 638 4.0 -18.8°
Drops below altitude 10° 18:57:04 10° 0° (N) 1,717 6.0 -19.4°
Sets 18:59:14 0° 6° (N) 2,607 6.9 -19.8°
